Retour au catalogue

ACRIMSAT

ActifScienceSSO
NORAD 26033·PAYLOAD·🇺🇸 United States

Lancé Dec 21, 1999 depuis Vandenberg Space Force Base

Loading…

Prochains Passages (prochaines 24 heures)

TLE

FraisSource: Space-Track

Époque: Sep 14, 2026, 03:40 UTC

1 26033U 99070B   26257.15283703  .00000399  00000-0  81894-4 0  9995
2 26033  98.3587  43.6316 0026152 185.5722 174.5194 14.65993220425929

Suivez ACRIMSAT en temps réel avec AllMySat

Download on the App Store